Weather History for Louisville Bowman, KY

Change the Weather History Date:

Sunday, April 7, 2013

  Actual Average Record
Temperature  
Mean Temperature 66 °F 54 °F  
Max Temperature 73 °F 64 °F 87 °F (1959)
Min Temperature 58 °F 44 °F 22 °F (1982)
Degree Days  
Heating Degree Days 0 12  
Month to date heating degree days 111 87  
Since 1 July heating degree days 4104 4010  
Cooling Degree Days 1 1  
Month to date cooling degree days 1 7  
Year to date cooling degree days 1 11  
Growing Degree Days 18 (Base 50)    
Moisture  
Dew Point 43 °F    
Average Humidity 43    
Maximum Humidity 51    
Minimum Humidity 34    
Precipitation  
Precipitation T in 0.12 in 0.95 in (2014)
Month to date precipitation T 0.80  
Year to date precipitation 10.84 11.52  
Sea Level Pressure  
Sea Level Pressure 29.95 in    
Wind  
Wind Speed 9 mph (SSW)    
Max Wind Speed 18 mph    
Max Gust Speed 25 mph    
Visibility 10 miles    
Events      
T = Trace of Precipitation, MM = Missing Value Source: NWS Daily Summary

Daily Weather History Graph

Daily Weather History Graph

Search for Another Location

Airport:

Trip Planner

Search our weather history database for the weather conditions in past years. The results will help you decide how hot, cold, wet, or windy it might be!

Date:

Astronomy

Apr. 07, 2013 Rise Set
Actual Time 7:18 AM EDT 8:11 PM EDT
Civil Twilight 6:51 AM EDT 8:38 PM EDT
Nautical Twilight 6:19 AM EDT 9:10 PM EDT
Astronomical Twilight 5:46 AM EDT 9:43 PM EDT
Moon 5:33 AM EDT (4/7) 5:44 PM EDT (4/7)
Length of Visible Light 13h 47m
Length of Day
12h 53m
Waning Crescent, 8% of the Moon is Illuminated
Apr 7
Waning Crescent
Apr 10
New
Apr 18
First Quarter
Apr 25
Full
May 2
Last Quarter

Hourly Weather History & Observations

Time (EDT) Temp. Dew Point Humidity Pressure Visibility Wind Dir Wind Speed Gust Speed Precip Events Conditions
12:53 AM 64.9 °F 35.1 °F 33% 29.92 in 10.0 mi South 12.7 mph 18.4 mph N/A   Clear
1:53 AM 64.0 °F 36.0 °F 35% 29.92 in 10.0 mi South 10.4 mph - N/A   Clear
2:53 AM 64.9 °F 36.0 °F 34% 29.92 in 10.0 mi SSW 11.5 mph 19.6 mph N/A   Clear
3:53 AM 64.0 °F 36.0 °F 35% 29.91 in 10.0 mi SSW 10.4 mph 21.9 mph N/A   Clear
4:53 AM 63.0 °F 37.0 °F 38% 29.91 in 10.0 mi SSW 9.2 mph - N/A   Mostly Cloudy
5:53 AM 63.0 °F 37.0 °F 38% 29.91 in 10.0 mi SSW 11.5 mph 19.6 mph N/A   Overcast
6:53 AM 63.0 °F 37.9 °F 40% 29.92 in 10.0 mi SSW 10.4 mph - N/A   Overcast
7:53 AM 63.0 °F 39.0 °F 41% 29.94 in 10.0 mi SW 8.1 mph 17.3 mph N/A   Overcast
8:53 AM 63.0 °F 39.0 °F 41% 29.96 in 10.0 mi SSW 8.1 mph - N/A   Overcast
9:53 AM 63.0 °F 41.0 °F 45% 29.97 in 10.0 mi SW 12.7 mph - N/A   Overcast
10:53 AM 64.9 °F 44.1 °F 47% 29.98 in 10.0 mi SW 12.7 mph 19.6 mph N/A   Mostly Cloudy
11:53 AM 66.9 °F 46.0 °F 47% 29.99 in 10.0 mi WSW 10.4 mph - N/A   Mostly Cloudy
12:53 PM 71.1 °F 46.9 °F 42% 29.98 in 10.0 mi SSW 16.1 mph 21.9 mph N/A   Mostly Cloudy
1:53 PM 69.1 °F 46.9 °F 45% 29.97 in 10.0 mi WSW 12.7 mph 20.7 mph N/A   Mostly Cloudy
2:53 PM 70.0 °F 48.9 °F 47% 29.97 in 10.0 mi SW 11.5 mph 23.0 mph N/A   Mostly Cloudy
3:53 PM 70.0 °F 50.0 °F 49% 29.96 in 10.0 mi SSW 9.2 mph 18.4 mph N/A   Mostly Cloudy
4:53 PM 72.0 °F 51.1 °F 48% 29.96 in 10.0 mi South 10.4 mph - 0.00 in   Mostly Cloudy
5:53 PM 72.0 °F 51.1 °F 48% 29.96 in 10.0 mi SSW 6.9 mph - N/A   Mostly Cloudy
6:53 PM 71.1 °F 50.0 °F 47% 29.95 in 10.0 mi SSW 5.8 mph - N/A   Mostly Cloudy
7:53 PM 71.1 °F 48.9 °F 45% 29.95 in 10.0 mi South 5.8 mph - N/A   Mostly Cloudy
8:53 PM 68.0 °F 48.9 °F 50% 29.95 in 10.0 mi SSE 3.5 mph - N/A   Scattered Clouds
9:53 PM 66.9 °F 46.9 °F 49% 29.96 in 10.0 mi South 5.8 mph - N/A   Clear
10:53 PM 64.9 °F 44.1 °F 47% 29.98 in 10.0 mi Calm Calm - N/A   Clear
11:53 PM 63.0 °F 43.0 °F 48% 29.98 in 10.0 mi Calm Calm - N/A   Clear